Temp
-17 -16 -15 -15 -14 -14 -14 -13 -13 -13 -13 -14 -15 -15 -15 -14 -14 -14 -14 -14 -14 -14 -13 -13 -13 -13 -13 -12 -13 -13 -13 -13 -12 -13 -12 -12 -12 -12 -13 -14 -13 -14 -13
-18 -17 -16 -16 -15 -14 -14 -13 -13 -13 -13 -14 -15 -15 -15 -15 -14 -14 -15 -14 -14 -14 -14 -13 -12 -13 -12 -13 -13 -13 -13 -13 -13 -12 -12 -12 -13 -13 -14 -14 -14 -14 -14
-18 -17 -16 -16 -15 -14 -14 -13 -13 -13 -13 -14 -14 -15 -15 -15 -14 -14 -15 -14 -14 -14 -15 -13 -13 -13 -13 -13 -13 -13 -13 -13 -13 -13 -13 -13 -13 -14 -14 -14 -14 -14 -14
-18 -17 -16 -16 -15 -15 -14 -14 -13 -13 -13 -14 -14 -15 -15 -15 -15 -15 -15 -14 -14 -14 -14 -14 -14 -13 -13 -13 -13 -13 -13 -13 -13 -13 -13 -14 -14 -14 -14 -14 -14 -14 -14
-18 -17 -16 -16 -15 -15 -14 -14 -13 -13 -13 -14 -14 -15 -15 -15 -15 -15 -14 -14 -14 -14 -14 -14 -14 -14 -13 -13 -13 -13 -14 -13 -13 -13 -13 -14 -14 -14 -14 -14 -14 -14 -15
-18 -17 -16 -16 -15 -15 -14 -14 -14 -14 -14 -13 -14 -15 -15 -15 -15 -15 -15 -15 -15 -14 -14 -14 -13 -13 -13 -14 -13 -13 -14 -14 -14 -14 -14 -14 -15 -15 -14 -15 -15 -15 -15
-18 -17 -16 -16 -15 -15 -15 -14 -14 -13 -13 -13 -14 -15 -15 -15 -15 -15 -15 -15 -15 -14 -14 -14 -14 -13 -13 -14 -14 -14 -14 -14 -14 -14 -14 -14 -14 -15 -15 -15 -15 -15 -16
-17 -17 -16 -16 -15 -15 -15 -14 -13 -13 -14 -13 -14 -15 -15 -15 -15 -15 -15 -15 -14 -14 -14 -15 -14 -14 -13 -13 -14 -14 -14 -14 -14 -14 -14 -14 -15 -15 -15 -15 -15 -16 -16
-17 -17 -16 -16 -15 -14 -14 -14 -14 -13 -13 -13 -14 -15 -15 -15 -15 -15 -15 -15 -14 -14 -14 -15 -14 -15 -14 -14 -14 -14 -14 -14 -15 -15 -15 -15 -15 -15 -15 -16 -16 -16 -16
-17 -17 -16 -16 -15 -15 -14 -14 -13 -13 -14 -14 -14 -15 -15 -15 -15 -15 -15 -15 -14 -14 -14 -14 -14 -14 -14 -14 -14 -14 -14 -15 -15 -15 -15 -15 -15 -16 -16 -16 -16 -16 -16
-18 -17 -16 -16 -15 -15 -15 -14 -14 -14 -15 -15 -14 -15 -15 -15 -15 -15 -15 -15 -15 -15 -14 -14 -14 -14 -14 -14 -14 -14 -14 -15 -15 -15 -15 -15 -15 -16 -15 -16 -16 -16 -16
-19 -18 -17 -16 -15 -15 -15 -14 -14 -14 -15 -15 -15 -15 -15 -15 -15 -15 -15 -15 -15 -14 -15 -15 -14 -14 -15 -14 -14 -14 -15 -15 -15 -15 -15 -15 -16 -16 -16 -16 -16 -17 -17
-21 -19 -18 -17 -16 -15 -15 -15 -15 -15 -15 -14 -15 -15 -15 -15 -15 -15 -15 -16 -15 -15 -15 -15 -15 -15 -15 -15 -15 -15 -15 -15 -15 -15 -15 -15 -16 -16 -16 -17 -17 -17 -17
-22 -21 -20 -18 -16 -16 -15 -15 -15 -16 -15 -14 -16 -16 -15 -15 -15 -15 -15 -16 -16 -15 -15 -15 -15 -15 -15 -15 -15 -16 -16 -16 -15 -15 -16 -16 -16 -17 -17 -17 -17 -17 -17
-22 -22 -22 -20 -18 -16 -15 -15 -15 -15 -15 -15 -16 -16 -15 -15 -15 -15 -15 -16 -16 -16 -16 -16 -16 -16 -16 -16 -16 -16 -16 -16 -16 -16 -16 -16 -16 -17 -17 -17 -18 -18 -18
-22 -22 -21 -21 -19 -17 -16 -15 -15 -15 -15 -16 -15 -16 -15 -15 -15 -15 -15 -15 -16 -16 -16 -16 -16 -16 -17 -17 -17 -17 -17 -17 -17 -17 -17 -17 -17 -18 -18 -18 -18 -18 -19
-22 -22 -22 -21 -20 -18 -16 -16 -16 -15 -16 -15 -15 -15 -15 -15 -15 -15 -15 -15 -16 -17 -16 -16 -16 -16 -16 -16 -17 -16 -17 -17 -17 -17 -18 -18 -18 -18 -18 -18 -19 -19 -19
-22 -22 -21 -21 -20 -19 -17 -16 -16 -15 -16 -16 -15 -15 -15 -15 -15 -15 -15 -15 -16 -16 -17 -17 -17 -16 -17 -17 -17 -17 -17 -17 -17 -18 -18 -18 -18 -18 -19 -19 -20 -20 -20
-21 -21 -21 -21 -20 -19 -17 -16 -15 -15 -16 -16 -16 -16 -16 -15 -15 -15 -15 -16 -16 -17 -17 -17 -16 -17 -17 -17 -17 -17 -17 -17 -17 -18 -18 -18 -18 -18 -19 -20 -20 -21 -21
-21 -21 -21 -21 -20 -19 -19 -16 -16 -16 -16 -16 -16 -16 -16 -16 -16 -16 -16 -17 -17 -17 -17 -16 -16 -17 -17 -17 -17 -17 -17 -18 -18 -18 -18 -18 -19 -20 -20 -20 -21 -21 -22
-21 -22 -21 -21 -20 -19 -19 -19 -17 -16 -16 -16 -16 -16 -17 -17 -16 -17 -17 -17 -17 -17 -17 -17 -17 -17 -18 -18 -19 -19 -19 -18 -18 -19 -20 -20 -20 -20 -21 -21 -22 -22 -22
-21 -21 -21 -20 -21 -20 -20 -20 -20 -19 -17 -17 -17 -17 -17 -17 -17 -17 -17 -17 -17 -17 -18 -18 -18 -19 -19 -19 -19 -19 -19 -20 -20 -20 -20 -20 -21 -22 -22 -22 -23 -23 -22
-21 -21 -21 -21 -21 -21 -21 -20 -20 -20 -19 -18 -18 -18 -17 -18 -18 -18 -18 -18 -18 -18 -19 -19 -19 -19 -19 -20 -20 -20 -20 -20 -20 -21 -21 -22 -22 -23 -23 -22 -22 -22 -23
-22 -22 -21 -21 -21 -21 -21 -21 -20 -20 -20 -20 -19 -19 -20 -20 -19 -19 -19 -19 -19 -19 -20 -20 -20 -20 -20 -20 -21 -21 -21 -21 -21 -22 -22 -23 -23 -23 -23 -23 -23 -23 -24
-23 -23 -22 -22 -21 -21 -21 -21 -21 -21 -20 -20 -20 -20 -20 -20 -20 -20 -20 -20 -20 -20 -20 -20 -21 -21 -21 -21 -21 -22 -22 -23 -23 -23 -23 -23 -23 -23 -23 -24 -24 -24 -25
-23 -23 -23 -23 -22 -22 -22 -21 -21 -21 -21 -21 -20 -20 -20 -20 -20 -21 -21 -21 -21 -21 -21 -21 -21 -21 -22 -22 -22 -23 -23 -23 -23 -23 -24 -24 -24 -24 -24 -25 -25 -25 -26
Height
5640 5645 5649 5652 5655 5659 5663 5666 5669 5672 5673 5676 5678 5680 5683 5685 5685 5685 5684 5682 5680 5679 5676 5678 5684 5690 5695 5699 5703 5707 5712 5715 5719 5723 5725 5726 5728 5729 5731 5732 5733 5732 5732
5629 5634 5637 5640 5643 5648 5652 5655 5659 5663 5664 5666 5669 5672 5674 5676 5677 5678 5677 5676 5675 5673 5671 5671 5677 5679 5683 5689 5694 5699 5704 5706 5711 5714 5716 5717 5718 5720 5721 5723 5724 5724 5724
5618 5622 5625 5628 5632 5637 5640 5644 5649 5652 5655 5657 5660 5663 5666 5668 5669 5670 5669 5668 5669 5667 5668 5666 5668 5671 5676 5680 5686 5689 5695 5698 5702 5705 5707 5708 5709 5710 5712 5714 5715 5716 5715
5610 5612 5614 5617 5621 5625 5629 5634 5638 5640 5645 5648 5651 5654 5657 5659 5661 5662 5661 5661 5661 5662 5662 5663 5662 5665 5669 5673 5679 5682 5686 5690 5693 5696 5698 5699 5702 5702 5702 5704 5705 5706 5705
5602 5603 5604 5607 5609 5613 5618 5623 5627 5630 5634 5639 5642 5646 5648 5651 5652 5653 5654 5654 5653 5654 5656 5657 5657 5658 5660 5664 5669 5674 5677 5682 5685 5687 5690 5692 5693 5694 5695 5695 5696 5696 5696
5593 5594 5595 5596 5599 5603 5608 5612 5615 5619 5624 5629 5633 5636 5640 5642 5644 5645 5646 5646 5646 5645 5646 5648 5649 5650 5652 5656 5661 5666 5671 5673 5676 5679 5682 5685 5685 5686 5687 5686 5687 5688 5688
5584 5585 5586 5586 5589 5593 5597 5601 5604 5609 5614 5619 5623 5626 5630 5634 5636 5638 5639 5639 5639 5638 5637 5638 5637 5639 5645 5649 5654 5658 5661 5665 5668 5671 5673 5676 5678 5678 5677 5677 5678 5679 5679
5572 5576 5576 5576 5578 5582 5585 5589 5595 5600 5603 5609 5612 5615 5620 5624 5628 5630 5631 5632 5632 5630 5629 5629 5626 5627 5633 5640 5645 5648 5651 5655 5658 5662 5663 5664 5666 5667 5669 5669 5670 5670 5668
5560 5564 5565 5566 5568 5570 5574 5580 5585 5590 5593 5598 5601 5604 5609 5614 5618 5622 5624 5625 5625 5623 5623 5621 5619 5621 5625 5630 5636 5640 5642 5646 5650 5651 5654 5655 5656 5658 5660 5661 5661 5660 5658
5546 5550 5553 5555 5557 5559 5563 5568 5573 5579 5583 5587 5590 5594 5599 5605 5610 5614 5616 5617 5617 5616 5617 5616 5615 5616 5619 5623 5627 5632 5634 5637 5640 5642 5644 5646 5649 5650 5651 5651 5650 5649 5647
5530 5533 5538 5543 5545 5548 5550 5555 5562 5567 5572 5576 5579 5584 5590 5596 5601 5605 5608 5610 5611 5610 5611 5611 5611 5611 5612 5615 5618 5622 5625 5627 5631 5634 5636 5638 5639 5641 5641 5641 5639 5638 5636
5513 5518 5522 5528 5532 5535 5538 5543 5549 5554 5561 5564 5570 5575 5581 5586 5592 5596 5599 5602 5604 5604 5605 5605 5606 5608 5610 5611 5612 5616 5619 5621 5624 5626 5628 5630 5631 5632 5631 5630 5628 5627 5625
5501 5504 5508 5513 5518 5523 5527 5532 5537 5542 5549 5555 5560 5565 5571 5577 5582 5587 5590 5593 5596 5598 5599 5599 5600 5601 5604 5607 5609 5611 5614 5616 5618 5619 5620 5621 5621 5621 5621 5620 5618 5615 5612
5489 5490 5494 5499 5504 5510 5515 5520 5524 5530 5538 5545 5549 5554 5562 5567 5572 5577 5580 5584 5588 5591 5592 5593 5594 5596 5598 5600 5602 5604 5606 5607 5608 5610 5610 5611 5611 5610 5609 5608 5606 5602 5599
5480 5481 5484 5487 5491 5496 5503 5507 5513 5520 5524 5530 5539 5544 5551 5556 5562 5566 5569 5573 5577 5579 5581 5584 5586 5588 5590 5592 5594 5595 5597 5598 5599 5600 5600 5600 5600 5598 5596 5594 5592 5589 5586
5472 5472 5474 5477 5479 5483 5490 5495 5502 5509 5516 5522 5529 5535 5538 5546 5550 5555 5557 5561 5564 5569 5572 5575 5578 5580 5582 5583 5584 5586 5587 5588 5588 5588 5588 5588 5587 5585 5583 5581 5577 5574 5570
5464 5464 5465 5467 5469 5473 5478 5484 5491 5499 5507 5513 5519 5525 5529 5534 5540 5542 5547 5550 5554 5558 5562 5565 5568 5570 5571 5573 5574 5575 5575 5576 5575 5575 5575 5574 5573 5572 5570 5566 5563 5559 5555
5458 5457 5458 5459 5462 5464 5467 5474 5481 5488 5495 5499 5507 5513 5519 5524 5529 5535 5538 5541 5544 5547 5551 5554 5556 5558 5560 5561 5563 5563 5564 5564 5563 5563 5563 5562 5560 5558 5555 5552 5548 5545 5540
5454 5453 5454 5454 5455 5457 5458 5463 5470 5476 5481 5488 5496 5503 5508 5515 5521 5524 5528 5530 5536 5538 5540 5543 5545 5546 5548 5549 5550 5551 5551 5550 5550 5550 5549 5549 5546 5544 5541 5537 5533 5530 5526
5451 5451 5451 5450 5451 5453 5452 5454 5461 5467 5473 5479 5487 5493 5499 5505 5510 5514 5517 5521 5525 5527 5529 5532 5533 5534 5535 5537 5537 5537 5537 5537 5537 5536 5536 5535 5532 5529 5526 5523 5519 5516 5512
5448 5447 5446 5448 5448 5449 5450 5450 5451 5457 5463 5469 5476 5482 5487 5494 5499 5504 5507 5510 5512 5515 5517 5518 5521 5522 5522 5523 5523 5523 5524 5525 5524 5522 5521 5521 5518 5515 5512 5509 5506 5502 5498
5446 5446 5446 5447 5446 5446 5447 5449 5450 5452 5455 5461 5467 5472 5477 5482 5487 5492 5495 5498 5501 5504 5505 5506 5508 5510 5512 5513 5513 5512 5512 5512 5511 5509 5508 5507 5504 5501 5499 5496 5491 5487 5481
5445 5445 5444 5444 5444 5445 5446 5447 5449 5450 5451 5454 5460 5464 5468 5472 5477 5479 5482 5487 5489 5493 5493 5495 5499 5500 5501 5501 5501 5500 5500 5498 5497 5496 5493 5493 5491 5488 5484 5480 5477 5472 5466
5443 5443 5443 5442 5442 5443 5444 5445 5447 5450 5450 5453 5456 5458 5461 5464 5467 5469 5473 5478 5480 5482 5483 5485 5487 5489 5489 5488 5488 5487 5486 5485 5484 5483 5481 5479 5475 5473 5471 5466 5461 5456 5451
5441 5440 5440 5440 5440 5441 5441 5443 5445 5447 5450 5451 5453 5455 5457 5459 5460 5462 5465 5468 5470 5472 5473 5475 5476 5476 5475 5475 5475 5474 5473 5472 5471 5469 5467 5464 5463 5460 5455 5450 5446 5440 5434
5436 5436 5437 5437 5438 5438 5439 5440 5441 5443 5444 5446 5448 5449 5451 5452 5454 5456 5458 5460 5461 5462 5462 5463 5464 5463 5463 5462 5462 5462 5461 5460 5459 5456 5453 5451 5447 5443 5439 5434 5429 5423 5416
Wind_Speed
44 43 43 45 41 40 39 38 37 32 26 27 31 30 30 28 28 29 27 28 27 27 22 33 38 42 44 45 49 47 40 39 39 39 39 40 40 45 35 34 36 36 38
41 40 39 38 35 37 40 39 38 33 28 28 32 32 30 29 29 30 26 26 25 24 21 25 37 43 48 48 49 49 43 43 43 42 43 41 33 31 32 34 33 35 41
37 41 39 41 39 34 32 35 36 33 30 28 30 32 31 31 29 29 27 26 26 22 24 16 29 41 41 45 49 49 45 45 43 42 43 42 35 30 31 33 33 34 34
31 34 36 35 39 43 36 36 36 32 29 30 30 33 32 32 29 30 27 27 27 25 23 22 17 38 42 48 48 49 49 46 43 38 43 35 30 32 31 31 32 34 35
30 33 34 34 34 36 40 37 36 30 29 31 31 32 33 31 31 32 28 28 27 27 27 26 24 22 36 41 47 46 45 44 39 39 37 32 32 26 30 29 30 34 34
26 30 33 31 32 35 40 39 34 30 32 34 32 33 34 31 31 32 27 28 28 27 29 31 26 26 28 35 38 40 44 43 39 39 36 25 22 32 32 31 31 34 31
23 28 32 32 34 39 43 39 31 33 36 35 34 35 35 32 32 32 28 28 30 27 27 27 34 31 34 31 36 36 42 38 39 37 34 36 29 33 36 32 30 32 34
35 31 32 35 36 36 42 42 39 39 38 37 35 37 36 34 32 31 29 28 30 23 22 27 24 27 34 33 35 34 36 36 36 38 40 37 36 34 36 31 34 36 40
42 33 33 35 38 37 38 44 42 41 40 38 37 39 38 37 33 32 30 28 28 21 22 21 20 26 31 31 32 33 30 31 34 38 32 31 31 30 31 33 38 40 41
46 33 33 35 39 42 38 40 41 41 38 36 39 40 41 40 35 34 30 28 27 21 20 16 16 25 30 39 39 36 32 31 31 33 37 33 31 31 38 42 40 42 46
45 37 33 34 39 43 41 41 42 39 44 36 38 40 43 42 37 35 31 28 27 22 19 19 14 13 19 29 37 39 36 37 38 33 29 29 30 38 43 44 44 46 48
46 40 37 35 39 42 40 42 43 37 36 34 38 43 45 44 41 37 34 29 29 26 22 19 20 19 18 18 19 21 25 30 32 33 34 36 39 41 41 42 42 44 47
40 41 42 40 41 42 40 41 44 39 42 41 45 45 47 46 43 39 37 32 31 28 25 22 20 21 22 21 22 27 30 31 33 35 39 42 39 39 39 40 44 47 49
34 34 38 41 43 43 42 44 44 48 38 42 43 46 49 48 45 41 40 36 33 31 29 28 26 24 23 24 27 30 32 34 38 40 40 39 39 40 41 45 47 49 53
30 30 28 36 43 43 43 42 40 48 54 43 42 51 52 50 45 46 43 42 40 38 34 30 27 26 26 26 27 28 29 32 33 35 39 41 43 47 47 47 46 49 52
30 26 28 32 36 40 42 43 42 46 52 42 43 45 47 48 47 52 50 51 48 44 38 34 32 32 31 31 32 34 34 34 37 41 43 42 42 44 44 46 48 48 50
18 24 23 27 29 35 41 40 43 42 48 53 54 54 50 55 49 50 38 41 41 46 41 38 36 33 33 34 31 33 35 36 36 37 39 44 48 48 49 49 48 48 49
13 14 23 26 26 29 33 36 41 45 49 57 50 47 53 54 50 43 37 36 37 42 37 37 39 42 39 38 42 45 42 43 44 44 44 44 48 49 47 46 48 49 49
12 1 4 16 23 24 28 32 37 41 44 52 52 53 50 48 43 43 41 38 43 42 43 42 39 35 35 41 43 45 47 51 51 48 49 52 55 54 49 48 48 47 47
8 11 12 2 14 15 19 27 32 37 37 50 52 47 49 54 46 52 48 44 43 45 45 53 47 44 45 49 47 48 51 51 48 48 52 52 49 46 46 46 45 47 49
4 7 8 6 11 14 10 8 28 41 45 55 52 47 50 50 45 44 42 48 45 44 48 46 42 41 39 40 39 40 41 41 42 38 38 41 44 44 43 44 46 48 51
8 6 2 6 8 5 9 10 4 22 39 44 48 51 49 46 46 49 44 43 44 41 37 36 34 32 34 36 37 38 35 36 37 40 41 41 41 42 44 45 48 52 56
6 7 9 8 4 7 7 6 3 3 13 23 30 32 40 39 41 38 40 40 38 36 34 33 36 34 34 33 33 35 39 41 41 41 40 41 42 44 47 50 54 55 56
5 7 8 8 13 9 5 4 4 7 5 5 11 17 20 17 22 29 34 33 32 31 28 29 31 33 35 36 38 40 39 39 38 38 40 42 44 49 52 54 55 56 57
7 7 6 7 7 7 10 13 11 10 12 13 14 14 15 15 17 20 23 26 28 29 31 33 36 38 40 39 37 36 36 37 38 42 44 46 50 53 53 54 55 57 60
13 12 10 9 9 9 9 10 11 14 17 19 21 22 23 25 26 28 29 31 33 34 35 35 35 35 36 36 36 38 41 42 44 46 48 50 52 53 54 56 58 59 61
Wind_Direction
255 252 249 248 247 249 251 255 253 245 246 251 251 252 252 260 265 273 286 284 284 286 289 222 226 228 233 237 233 233 238 242 244 247 253 257 256 256 254 261 267 273 275
253 254 248 247 246 245 244 245 247 243 243 248 249 254 255 259 263 270 283 281 285 288 304 238 233 227 227 226 228 234 240 244 244 253 257 265 248 244 254 257 262 271 273
252 252 252 243 242 237 242 241 243 241 241 241 244 249 251 256 260 269 280 283 278 280 289 286 236 228 225 223 229 238 243 247 254 259 266 269 244 245 246 253 264 273 278
250 248 246 242 243 242 245 243 243 243 240 242 243 246 248 255 256 262 274 282 279 271 271 274 272 232 232 231 231 239 247 249 254 262 268 251 247 252 256 263 269 270 272
249 245 243 244 244 243 241 243 241 239 241 242 239 238 243 250 253 259 269 279 283 266 264 264 260 250 230 230 226 230 244 254 258 264 254 248 256 255 263 264 270 270 270
252 247 245 239 243 241 238 241 238 241 244 243 236 233 240 246 251 257 268 280 280 274 266 263 259 262 236 231 232 231 240 247 257 255 253 251 261 262 258 265 268 265 262
284 257 245 243 238 238 237 239 242 247 245 245 234 229 238 242 246 254 262 273 279 274 262 263 267 254 228 228 226 233 242 240 248 250 252 264 253 265 260 259 258 259 264
285 275 249 243 241 235 233 236 238 245 242 240 232 227 236 241 245 252 258 270 276 268 265 277 256 229 216 223 228 229 236 243 250 255 259 267 268 257 258 249 256 263 269
285 274 254 241 242 238 230 237 239 240 241 237 231 228 232 239 242 249 254 263 269 261 260 282 245 228 218 215 225 240 238 242 260 263 259 255 262 247 246 249 260 267 269
277 262 254 241 238 240 233 234 235 235 241 234 231 229 232 236 239 246 250 259 264 261 255 267 241 230 230 225 229 228 233 240 245 256 248 245 237 239 250 255 260 263 272
267 255 240 238 234 237 235 233 231 227 231 234 232 231 231 234 235 241 245 254 256 254 249 242 239 229 225 234 236 229 236 241 248 239 233 237 244 246 253 260 264 274 277
263 249 236 232 233 235 234 232 231 231 230 238 238 232 228 232 234 238 241 248 251 250 249 242 233 235 230 217 215 229 240 233 222 223 230 234 246 252 264 271 274 279 282
266 250 235 227 228 230 232 230 227 216 226 232 241 227 230 232 236 236 238 242 247 247 247 250 244 235 233 223 221 229 233 235 237 240 242 242 261 271 271 276 280 280 282
261 247 238 232 228 228 229 223 230 216 225 224 235 222 231 234 238 235 237 239 244 245 243 239 240 243 244 244 242 241 245 245 245 250 258 265 264 269 274 275 278 281 282
257 248 239 238 231 229 225 228 221 225 214 234 230 231 234 236 237 236 238 238 238 238 238 241 246 247 246 248 251 252 252 255 256 258 261 263 268 272 275 275 279 286 289
265 259 246 247 239 234 225 225 229 213 229 224 232 241 236 238 241 242 240 244 241 238 239 241 247 249 249 249 249 253 255 258 262 263 262 266 272 272 272 277 283 290 289
265 256 247 240 234 234 228 223 221 221 216 230 224 231 235 233 240 251 256 257 257 241 241 245 247 256 259 262 265 258 260 271 266 265 268 262 262 268 275 282 293 290 290
281 263 243 244 233 232 235 225 221 227 230 229 224 226 228 239 239 250 246 248 252 248 246 252 250 251 257 260 261 267 266 260 259 259 257 261 266 273 285 292 291 291 293
265 238 268 231 226 233 242 231 224 224 228 225 224 232 241 241 237 237 247 239 235 252 253 255 258 262 265 262 262 258 251 256 260 260 264 269 271 283 293 292 290 291 292
301 251 273 190 207 218 238 240 227 221 223 221 220 224 229 225 224 227 235 237 243 245 251 248 246 251 259 259 257 254 256 255 257 262 268 274 283 287 286 287 289 291 294
296 303 328 326 188 196 189 184 215 216 218 219 224 228 221 226 227 235 242 242 250 255 250 243 253 253 251 245 241 247 252 269 271 282 285 284 281 282 285 288 288 292 295
262 241 330 221 304 164 190 181 138 192 212 215 215 218 223 229 229 228 243 244 248 243 239 242 238 240 248 257 267 275 277 279 277 277 277 280 282 283 286 288 293 298 300
248 275 234 212 284 333 357 183 1 200 166 188 205 214 221 223 226 226 227 230 231 234 235 233 245 257 267 274 274 273 274 276 278 278 279 279 281 285 291 294 294 295 297
245 241 258 266 241 240 264 271 251 269 292 273 213 202 206 214 213 214 219 226 232 241 251 258 262 266 271 271 271 273 272 273 274 276 278 283 288 290 289 291 294 296 299
266 255 247 251 256 261 244 226 231 245 239 245 254 262 265 261 264 264 260 259 266 266 264 264 265 266 268 270 270 269 272 275 278 282 285 286 287 288 290 293 295 297 299
268 262 258 253 250 249 251 255 252 242 239 238 240 242 242 251 251 251 251 252 255 258 260 264 267 267 268 270 272 274 277 278 279 281 284 285 288 291 292 293 296 298 300